This demonstration page uses our WeatherBlox Daily Observations layout. Learn more.

Left ArrowRight Arrow

Hourly Observations for May 9, 2019

Temp ( °F °C ) Dew Point ( °F °C ) Humidity (%) Winds ( mph kmh ) Pressure ( in mb ) Visibility ( mi km ) Precip ( " mm )
12:52 am 00:52 Mostly Clear 59 15 57 13.9 93 93 S 8 13 29.72 1007 10 16 0.00 0.00
1:52 am 01:52 Partly Cloudy 60 15.6 57 13.9 90 90 SSW 8 13 29.72 1006 10 16 0.00 0.00
2:52 am 02:52 Cloudy 61 16.1 58 14.4 90 90 SW 9 15 29.72 1006 10 16 0.00 0.00
3:45 am 03:45 Cloudy 61 16.1 58 14.4 90 90 SW 7 11 29.74 1007 10 16 0.00 0.00
3:52 am 03:52 Cloudy 61 16.1 58 14.4 90 90 SW 7 11 29.73 1007 10 16 0.00 0.00
4:03 am 04:03 Cloudy 61 16.1 58 14.4 90 90 SSW 6 9 29.74 1007 10 16 0.00 0.00
4:41 am 04:41 Cloudy 61 16.1 58 14.4 90 90 SW 7 11 29.74 1007 10 16 0.00 0.00
4:52 am 04:52 Cloudy 62 16.7 58 14.4 86 86 WSW 7 11 29.74 1007 10 16 0.00 0.00
5:52 am 05:52 Cloudy 62 16.7 59 15 90 90 WSW 3 6 29.76 1008 10 16 0.00 0.00
6:52 am 06:52 Cloudy with Light Rain 59 15 56 13.3 90 90 NW 10 17 29.80 1009 4 6 0.06 1.52
7:29 am 07:29 Cloudy 55 12.8 53 11.7 93 93 NW 12 19 29.84 1010 7 11 0.00 0.03
7:52 am 07:52 Cloudy with Mist and Fog 54 12.2 52 11.1 93 93 NW 12 19 29.83 1010 4 6 0.00 0.03
8:35 am 08:35 Cloudy with Mist and Fog 54 12.2 51 10.6 90 90 NW 12 19 29.87 1012 5 8 0.00 0.00
8:52 am 08:52 Cloudy with Mist and Fog 53 11.7 51 10.6 93 93 NW 10 17 29.86 1011 3 5 0.00 0.00
9:04 am 09:04 Cloudy with Mist and Fog 53 11.7 51 10.6 93 93 NW 12 19 29.87 1012 3 4 0.00 0.00
9:30 am 09:30 Cloudy with Mist and Fog 53 11.7 51 10.6 93 93 WNW 9 15 29.89 1012 4 6 0.00 0.00
9:52 am 09:52 Cloudy 54 12.2 51 10.6 90 90 NW 9 15 29.88 1012 7 11 0.00 0.00
10:14 am 10:14 Cloudy 53 11.7 51 10.6 93 93 NNW 14 22 29.89 1012 8 13 0.00 0.00
10:45 am 10:45 Cloudy 53 11.7 50 10 89 89 NW 12 19 29.92 1013 10 16 0.00 0.00
10:52 am 10:52 Cloudy 52 11.1 49 9.4 89 89 NW 12 19 29.91 1013 10 16 0.00 0.00
11:52 am 11:52 Cloudy 54 12.2 50 10 87 87 NNW 9 15 29.92 1013 10 16 0.00 0.00
12:52 pm 12:52 Cloudy 54 12.2 49 9.4 83 83 NW 7 11 29.92 1013 10 16 0.00 0.00
1:19 pm 13:19 Cloudy 54 12.2 48 8.9 80 80 WNW 9 15 29.94 1014 10 16 0.00 0.00
1:52 pm 13:52 Cloudy 54 12.2 48 8.9 80 80 NW 12 19 29.94 1014 10 16 0.00 0.00
2:52 pm 14:52 Cloudy 54 12.2 47 8.3 77 77 NW 9 15 29.95 1014 10 16 0.00 0.00
3:52 pm 15:52 Cloudy 52 11.1 46 7.8 80 80 NW 12 19 29.96 1014 10 16 0.00 0.00
4:37 pm 16:37 Cloudy 51 10.6 46 7.8 83 83 NW 8 13 29.98 1015 10 16 0.00 0.00
4:52 pm 16:52 Cloudy 51 10.6 45 7.2 80 80 WNW 9 15 29.97 1015 10 16 0.00 0.00
5:52 pm 17:52 Cloudy 50 10 45 7.2 83 83 NNW 13 20 29.98 1015 10 16 0.00 0.03
6:31 pm 18:31 Cloudy 50 10 44 6.7 80 80 NW 8 13 30.01 1016 10 16 0.00 0.00
6:52 pm 18:52 Cloudy 49 9.4 43 6.1 80 80 NW 12 19 30.00 1016 10 16 0.00 0.00
7:52 pm 19:52 Cloudy 48 8.9 42 5.6 80 80 NW 13 20 30.02 1017 10 16 0.00 0.00
8:52 pm 20:52 Cloudy 48 8.9 42 5.6 80 80 NW 7 11 30.06 1018 10 16 0.00 0.00
9:52 pm 21:52 Cloudy 47 8.3 41 5 80 80 NNW 9 15 30.08 1019 10 16 0.00 0.00
10:52 pm 22:52 Cloudy 47 8.3 41 5 80 80 NNW 9 15 30.10 1019 10 16 0.00 0.00
11:52 pm 23:52 Cloudy 47 8.3 40 4.4 77 77 NNW 9 15 30.10 1019 10 16 0.00 0.00

Powered by AerisWeather